Weather Roundup
Issued by NWS Springfield, MO

Home | Current Version | Previous Version | Text Only | Print | Product List | Glossary On
Versions: 1 2 3 4 5 6 7 8 9 10 11 12 13 14 15 16 17 18 19 20 21 22 23 24 25 26 27 28 29 30 31 32 33 34 35 36 37 38 39 40 41 42 43 44 45 46 47 48 49 50
000
NZUS99 KSGF 052307
HRRSGF

HOURLY WEATHER
NATIONAL WEATHER SERVICE SPRINGFIELD MO
600 PM CDT SUN JUL 05 2015

......SGF CWA......

CITY           SKY/WX    TMP DP  RH WIND       PRES   REMARKS
SPRINGFIELD    TSTM      70  67  90 W12       30.03F FOG
JOPLIN         PTSUNNY   90  74  59 S10       29.93F HX  99
WEST PLAINS    PTSUNNY   83  72  69 SE6       30.02F
ROLLA          MOSUNNY   82  69  64 S8        29.99F
OSAGE BEACH    MOSUNNY   84  70  61 S8        29.98F
BRANSON        PTSUNNY   72  68  88 CALM      30.03F

......SURROUNDING SGF CWA......

CITY           SKY/WX    TMP DP  RH WIND       PRES   REMARKS
CHANUTE        MOSUNNY   91  73  55 S15       29.89F HX  99
PARSONS        SUNNY     92  75  57 S12G17    29.90F HX 103
COFFEYVILLE    SUNNY     93  74  53 S14       29.88F HX 103
EMPORIA        SUNNY     92  70  48 S17       29.87F HX  97
GROVE OK       MOSUNNY   91  72  52 S10       29.94F HX  98
ROGERS AR      CLOUDY    82  72  71 E8        30.00S
SILOAM SPRINGS MOSUNNY   90  72  55 S9        29.97F HX  96
HARRISON AR    CLOUDY    71  68  90 E6        30.05R
NEAR YELLVILLE   N/A     79  70  73 CALM      29.99R

......KANSAS AND MISSOURI......

CITY           SKY/WX    TMP DP  RH WIND       PRES   REMARKS
KANSAS CTY INT PTSUNNY   87  75  67 S13       29.90F HX  96
DOWNTOWN KC    MOSUNNY   89  74  60 SE9G21    29.89F HX  98
COLUMBIA       PTSUNNY   85  70  60 SE13      29.98F
SEDALIA        MOSUNNY   87  74  64 SE12      29.96F HX  95
ST JOSEPH      MOSUNNY   88  74  63 S14       29.87F HX  96
ST LOUIS       PTSUNNY   86  65  49 SE9       30.00F
SPIRIT OF STL  SUNNY     84  69  60 SE6       29.98F
KIRKSVILLE     SUNNY     84  67  56 S13       29.97F
WICHITA        MOSUNNY   97  63  32 S18       29.83F HX  98
TOPEKA         MOSUNNY   92  72  51 SE15      29.86F HX  99
OLATHE         MOSUNNY   87  74  64 S15       29.90F HX  95

......TENNESSEE......

CITY           SKY/WX    TMP DP  RH WIND       PRES   REMARKS
MEMPHIS        PTSUNNY   83  69  62 SW5       30.04S
NASHVILLE      PTSUNNY   83  69  62 W3        30.05S

......ARKANSAS.......

CITY           SKY/WX    TMP DP  RH WIND       PRES   REMARKS
FAYETTEVILLE   MOSUNNY   86  74  67 S12       29.98F HX  94
FT SMITH       HVY RAIN  72  68  87 N29G39    29.99R FOG
LITTLE ROCK    MOSUNNY   80  68  66 S7        30.02R

......OKLAHOMA.......

CITY           SKY/WX    TMP DP  RH WIND       PRES   REMARKS
TULSA          MOSUNNY   92  73  53 S20       29.89F HX 100
PONCA CITY     SUNNY     94  69  44 S9G18     29.86F HX  99
MCALESTER      MOSUNNY   90  74  59 S8        29.94S HX  99
OKLAHOMA CITY  MOSUNNY   89  72  56 S16G22    29.90F HX  96

......IOWA............

CITY           SKY/WX    TMP DP  RH WIND       PRES   REMARKS
DES MOINES     PTSUNNY   86  69  56 SE17      29.90F HX  90
QUAD CITIES    PTSUNNY   79  66  64 SE7       29.99F

......ILLINOIS........

CITY           SKY/WX    TMP DP  RH WIND       PRES   REMARKS
QUINCY         MOSUNNY   84  68  58 SE9       29.99S
CHICAGO        MOSUNNY   81  60  48 SW8       30.02F



USA.gov is the U.S. government's official web portal to all federal, state and local government web resources and services.